Lakeland Region, FL

12:04 AM EDT on March 27, 2017 (GMT -0400)
Lakeland Linder Regional

Weather History for KLAL - April, 2013

Change the Weather History Date:

Thursday, April 11, 2013

  Actual Average Record
Temperature  
Mean Temperature 79 °F -  
Max Temperature 89 °F 79 °F 91 °F (1992)
Min Temperature 69 °F 60 °F 37 °F (2009)
Cooling Degree Days 14    
Growing Degree Days 29 (Base 50)    
Moisture  
Dew Point 68 °F    
Average Humidity 82    
Maximum Humidity 94    
Minimum Humidity 43    
Precipitation  
Precipitation 0.00 in - - ()
Sea Level Pressure  
Sea Level Pressure 29.94 in    
Wind  
Wind Speed 8 mph (SE)    
Max Wind Speed 28 mph    
Max Gust Speed 36 mph    
Visibility 10 miles    
Events Rain    
Averages and records for this station are not official NWS values.
T = Trace of Precipitation, MM = Missing Value Source: NWS Daily Summary

Daily Weather History Graph

Daily Weather History Graph

Search for Another Location

Airport or City:

Trip Planner

Search our weather history database for the weather conditions in past years. The results will help you decide how hot, cold, wet, or windy it might be!

Date:

Astronomy

Apr. 11, 2013 Rise Set
Actual Time 7:07 AM EDT 7:51 PM EDT
Civil Twilight 6:43 AM EDT 8:15 PM EDT
Nautical Twilight 6:15 AM EDT 8:43 PM EDT
Astronomical Twilight 5:46 AM EDT 9:12 PM EDT
Moon 7:45 AM EDT (4/11) 9:14 PM EDT (4/11)
Length of Visible Light 13h 32m
Length of Day
12h 44m
New Moon, 2% of the Moon is Illuminated
Apr 11
New Moon
Apr 18
First Quarter
Apr 25
Full
May 2
Last Quarter
May 9
New

Hourly Weather History & Observations

Time (EDT) Temp. Heat Index Dew Point Humidity Pressure Visibility Wind Dir Wind Speed Gust Speed Precip Events Conditions
12:15 AM 71.6 °F - 64.4 °F 78% 30.02 in 10.0 mi ESE 5.8 mph - N/A   Mostly Cloudy
12:35 AM 71.6 °F - 66.2 °F 83% 30.01 in 10.0 mi SE 6.9 mph - N/A   Overcast
12:55 AM 71.6 °F - 66.2 °F 83% 30.01 in 10.0 mi SE 8.1 mph - N/A   Overcast
1:15 AM 71.6 °F - 66.2 °F 83% 30.00 in 10.0 mi SE 8.1 mph - N/A   Overcast
1:35 AM 71.6 °F - 68.0 °F 88% 30.00 in 10.0 mi SSE 8.1 mph - N/A   Overcast
1:55 AM 71.6 °F - 68.0 °F 88% 29.99 in 10.0 mi SE 6.9 mph - N/A   Overcast
2:15 AM 71.6 °F - 68.0 °F 88% 29.98 in 10.0 mi SE 8.1 mph - N/A   Overcast
2:35 AM 71.6 °F - 68.0 °F 88% 29.97 in 10.0 mi SE 8.1 mph - N/A   Overcast
2:55 AM 71.6 °F - 68.0 °F 88% 29.97 in 10.0 mi SSE 6.9 mph - N/A   Overcast
3:15 AM 71.6 °F - 68.0 °F 88% 29.97 in 10.0 mi SE 9.2 mph - N/A   Overcast
3:35 AM 71.6 °F - 68.0 °F 88% 29.96 in 10.0 mi SE 8.1 mph - N/A   Overcast
3:55 AM 71.6 °F - 68.0 °F 88% 29.96 in 7.0 mi SE 6.9 mph - N/A   Overcast
4:15 AM 71.6 °F - 68.0 °F 88% 29.96 in 7.0 mi SE 8.1 mph - N/A   Overcast
4:35 AM 71.6 °F - 68.0 °F 88% 29.96 in 7.0 mi SSE 5.8 mph - N/A   Overcast
4:55 AM 71.6 °F - 69.8 °F 94% 29.97 in 7.0 mi SE 5.8 mph - N/A   Overcast
5:15 AM 71.6 °F - 68.0 °F 88% 29.96 in 7.0 mi SE 9.2 mph - N/A   Overcast
5:35 AM 71.6 °F - 68.0 °F 88% 29.96 in 7.0 mi SE 11.5 mph - N/A   Overcast
5:50 AM 73.4 °F - 69.8 °F 88% 29.97 in 7.0 mi SE 6.9 mph - N/A   Overcast
5:55 AM 71.6 °F - 68.0 °F 88% 29.97 in 7.0 mi SE 8.1 mph - N/A   Overcast
6:15 AM 71.6 °F - 68.0 °F 88% 29.96 in 7.0 mi SE 9.2 mph - N/A   Overcast
6:35 AM 71.6 °F - 68.0 °F 88% 29.96 in 7.0 mi SE 10.4 mph - N/A   Mostly Cloudy
6:50 AM 71.6 °F - 69.8 °F 94% 29.97 in 7.0 mi SE 11.5 mph - N/A   Mostly Cloudy
7:50 AM 71.6 °F - 69.8 °F 94% 29.99 in 8.0 mi SSE 9.2 mph - N/A   Scattered Clouds
8:50 AM 75.2 °F - 69.8 °F 83% 29.99 in 10.0 mi SSE 12.7 mph 19.6 mph N/A   Overcast
9:50 AM 77.0 °F - 68.0 °F 74% 30.00 in 15.0 mi SSE 18.4 mph - N/A   Mostly Cloudy
10:51 AM 80.6 °F 83.2 °F 68.0 °F 65% 30.01 in 15.0 mi South 13.8 mph - N/A   Mostly Cloudy
11:58 AM 82.4 °F 84.6 °F 66.2 °F 58% 29.99 in 15.0 mi SSE 16.1 mph 20.7 mph N/A   Mostly Cloudy
1:56 PM 69.8 °F - 64.4 °F 83% 29.94 in 20.0 mi South 13.8 mph 20.7 mph N/A   Mostly Cloudy
2:51 PM 89.6 °F 91.1 °F 64.4 °F 43% 29.92 in 20.0 mi SSE 11.5 mph 18.4 mph N/A   Mostly Cloudy
3:54 PM 87.8 °F 89.4 °F 64.4 °F 46% 29.88 in 20.0 mi SSE 13.8 mph - N/A   Mostly Cloudy
4:56 PM 86.0 °F 87.3 °F 64.4 °F 48% 29.86 in 20.0 mi SE 11.5 mph 19.6 mph N/A   Mostly Cloudy
5:50 PM 82.4 °F 86.3 °F 69.8 °F 66% 29.85 in 15.0 mi SSE 6.9 mph - N/A   Mostly Cloudy
6:28 PM 75.2 °F - 68.0 °F 78% 29.87 in 2.0 mi SE 27.6 mph 35.7 mph N/A Rain Heavy Rain
6:36 PM 73.4 °F - 66.2 °F 78% 29.86 in 4.0 mi East 21.9 mph 35.7 mph N/A Rain Rain
6:54 PM 73.4 °F - 69.8 °F 88% 29.86 in 5.0 mi Calm Calm - N/A Rain Light Rain
7:50 PM 73.4 °F - 71.6 °F 94% 29.87 in 10.0 mi Calm Calm - N/A   Mostly Cloudy
8:55 PM 73.4 °F - 71.6 °F 94% 29.86 in 10.0 mi SE 3.5 mph - N/A   Scattered Clouds
9:50 PM 75.2 °F - 71.6 °F 89% 29.85 in 10.0 mi SSE 10.4 mph - N/A   Scattered Clouds
10:55 PM 73.4 °F - 69.8 °F 88% 29.89 in 10.0 mi SSE 3.5 mph - N/A   Scattered Clouds
11:15 PM 73.4 °F - 69.8 °F 88% 29.90 in 10.0 mi SSE 4.6 mph - N/A   Scattered Clouds
11:35 PM 73.4 °F - 69.8 °F 88% 29.90 in 10.0 mi SSE 3.5 mph - N/A   Scattered Clouds
11:55 PM 73.4 °F - 69.8 °F 88% 29.90 in 10.0 mi SSE 5.8 mph - N/A   Mostly Cloudy